Regional Weather Roundup
Issued by NWS

Home | Current Version | Previous Version | Graphics & Text | Print | Product List | Glossary On
Versions: 1 2 3 4 5 6 7 8 9 10 11 12 13 14 15 16 17 18 19 20 21 22 23 24 25 26 27 28 29 30 31 32 33 34 35 36 37 38 39 40 41 42 43 44 45 46 47 48 49 50
000
ASUS43 KLOT 280803
RWRIL

ILLINOIS REGIONAL WEATHER ROUNDUP
NATIONAL WEATHER SERVICE CHICAGO/ROMEOVILLE IL
300 AM CDT TUE MAR 28 2017

NOTE: "FAIR" INDICATES FEW OR NO CLOUDS BELOW 12,000 FEET WITH NO
SIGNIFICANT WEATHER AND/OR OBSTRUCTIONS TO VISIBILITY.

* THESE STATIONS ARE NOT UNDER NWS QUALITY CONTROL. THEY ALSO MAY NOT
  REPORT WEATHER SUCH AS PRECIPITATION OR FOG.

ILZ001-002-007-009-015-016-024-280900-
NORTHWEST ILLINOIS

CITY           SKY/WX    TMP DP  RH WIND       PRES   REMARKS
MOLINE         CLOUDY    49  44  83 N5        30.00S
STERLING*      CLOUDY    47  46  97 NE3       30.01R FOG
SAVANNA*       CLOUDY    47  45  92 N6        30.01S
$$

ILZ003-004-008-010-011-017-018-280900-
NORTH CENTRAL ILLINOIS

CITY           SKY/WX    TMP DP  RH WIND       PRES   REMARKS
ROCKFORD       DRIZZLE   44  41  89 E5        30.02S FOG
FREEPORT*      CLOUDY    45  44  98 N3        30.02R FOG
ROCHELLE*      CLOUDY    42  40  93 NE10      30.01R FOG
DE KALB*       CLOUDY    41  39  93 NE7       30.00S FOG
$$

ILZ005-006-012>014-019>023-280900-
NORTHEAST ILLINOIS

CITY           SKY/WX    TMP DP  RH WIND       PRES   REMARKS
CHICAGO-OHARE  CLOUDY    42  35  76 N10       29.99R
CHICAGO-MIDWAY CLOUDY    42  36  79 N13G21    29.99R
AURORA         CLOUDY    43  39  86 N7        29.99S
LANSING*       CLEAR     38  37  97 N6        29.98R WCI  33
JOLIET*        CLOUDY    43  39  85 N6        29.99R
WAUKEGAN       CLOUDY    39  36  89 N8        30.00R WCI  33
DUPAGE AIRPORT CLOUDY    41  39  93 N8        29.99R
WHEELING       CLOUDY    40  36  86 N7        30.01R
MORRIS*        CLOUDY    42  39  88 CALM      29.98S
NORTHERLY ISL    N/A     39  35  86 N14         N/A  WCI  31
$$

LMZ740>746-280900-
SOUTHERN LAKE MICHIGAN

STATION/POSITION SKY/WX   TEMP    WIND        PRES    VSBY  WAVE
                          AIR SEA DIR/SP/G                  HT/PER
                          (F)     (DEG/KT/KT) (MB)    (MI)  (FT/S)
HARRISON CRIB              38     350/ 16/ 18   N/A
BURNHAM HARBOR             39     340/  9/ 15   N/A
CALUMET HARBOR             38     340/ 10/ 16 1014.6F
BURNS HARBOR               38     350/  9/ 11 1015.2S
MICHIGAN CITY              38     350/ 13/ 14   N/A
$$

ILZ025>027-034>036-040-047-049-050-058-095>099-280900-
WEST-CENTRAL ILLINOIS

CITY           SKY/WX    TMP DP  RH WIND       PRES   REMARKS
QUINCY         CLOUDY    50  48  93 N3        29.98F FOG
GALESBURG*     CLOUDY    47  46  96 N6        29.98S
MACOMB*        CLOUDY    48  47  97 N3        30.01S FOG
JACKSONVILLE*  CLOUDY    50  49  94 CALM      29.99R FOG
PITTSFIELD*    CLOUDY    51  49  92 N5        30.00S
$$

ILZ028>032-037-038-041>044-048-051>054-059>061-280900-
CENTRAL ILLINOIS

CITY           SKY/WX    TMP DP  RH WIND       PRES   REMARKS
PONTIAC        CLOUDY    45  43  93 N7        29.99S
BLOOMINGTON    CLOUDY    45  42  89 N12       29.98S
DECATUR        CLOUDY    49  47  93 N10       29.97R FOG
PEORIA         CLOUDY    50  48  93 VRB3      29.98S FOG
SPRINGFIELD    CLOUDY    52  50  93 N7        29.98S FOG
TAYLORVILLE    NOT AVBL
$$

ILZ033-039-045-046-055>057-062-063-280900-
EAST-CENTRAL ILLINOIS

CITY           SKY/WX    TMP DP  RH WIND       PRES   REMARKS
CHAMPAIGN      CLOUDY    46  42  86 N15       29.95R
RANTOUL*       CLOUDY    45  42  90 N17       29.96R
MATTOON        CLOUDY    48  48 100 N13       29.94R FOG
PARIS*         CLOUDY    49  49  99 N7        29.92R FOG
$$

ILZ079-100>102-280900-
SOUTHWEST ILLINOIS

CITY           SKY/WX    TMP DP  RH WIND       PRES   REMARKS
BELLEVILLE     CLOUDY    55  54  99 N10       29.96R
CAHOKIA*       CLOUDY    55  51  86 N10       29.97R FOG
SPARTA*        CLOUDY    54  52  94 NW7       29.96S
$$

ILZ064>066-069>071-074>076-080>082-084>086-088>090-092>094-280900-
SOUTH-CENTRAL ILLINOIS

CITY           SKY/WX    TMP DP  RH WIND       PRES   REMARKS
CARBONDALE     CLOUDY    55  53  93 N12       29.93S
CAIRO*         CLOUDY    55  52  92 NW7       29.92F
EFFINGHAM*     CLOUDY    53  53  99 NW9       29.95R FOG
MARION         CLOUDY    57  57 100 NW6       29.94R
MT. VERNON     CLOUDY    55  52  89 VRB6      29.93R
CENTRALIA*     CLOUDY    54  52  95 NW12      29.94S
SALEM*         CLOUDY    55  51  89 N13       29.94R
$$

ILZ067-068-072-073-078-083-087-091-280900-
SOUTHEAST ILLINOIS

CITY           SKY/WX    TMP DP  RH WIND       PRES   REMARKS
LAWRENCEVILLE  CLOUDY    56  54  93 N13       29.88R
FLORA*         CLOUDY    56  53  89 N12       29.92R
FAIRFIELD*     CLOUDY    56  54  92 NW5       29.90R
HARRISBURG*    CLOUDY    56  55  94 NW10      29.91S
ROBINSON*      CLOUDY    55  53  95 N9        29.89R
CARMI*         CLOUDY    55  55 100 NW8       29.89R FOG
$$

ABBREVIATIONS USED IN REMARKS
   TC - TEMPERATURE IN CELSIUS
  WCI - WIND CHILL INDEX
   HX - HEAT INDEX
  VSB - VISIBILITY
$$





USA.gov is the U.S. government's official web portal to all federal, state and local government web resources and services.